Location: Waco, TX
(31.5480°N, 97.1670°W)
Time: 15:20:00
(UTC-05:00)

ISS - Pass Details

Date: 21 September 2019
Orbit: 411 x 421 km, 51.6° (Epoch: 17 September)

Event Time Altitude Azimuth Distance (km) Brightness Sun altitude
Rises 04:38:25 0° 298° (WNW) 2,344 - -33.4°
Reaches altitude 10° 04:40:53 10° 280° (W) 1,480 - -32.9°
Maximum altitude 04:43:20 19° 232° (SW) 1,047 - -32.5°
Drops below altitude 10° 04:45:47 10° 185° (S) 1,478 - -32.0°
Sets 04:48:15 0° 167° (SSE) 2,338 - -31.5°
